• In Belgium
  • List of Countries
  • For 7 days
  • Water Temperature
  • Satellite Maps
  • Weather Map
  • Weather Widgets
  • user-avatar
    Login

    Hourly Weather Kortrijk

    Today, 22 February, Thursday

    Time Temperature Precipitation Wind Pressure Humidity
    00:00 -3°C° 0 mm 4 mps 765 mmHg 75%
    01:00 -3°C° 0 mm 4 mps 764 mmHg 77%
    02:00 -3°C° 0 mm 4 mps 764 mmHg 78%
    03:00 -3°C° 0 mm 4 mps 764 mmHg 79%
    04:00 -3°C° 0 mm 4 mps 764 mmHg 79%
    05:00 -3°C° 0 mm 4 mps 764 mmHg 79%
    06:00 -3°C° 0 mm 4 mps 763 mmHg 79%
    07:00 -4°C° 0 mm 5 mps 764 mmHg 73%
    08:00 -2°C° 0 mm 5 mps 764 mmHg 67%
    09:00 -2°C° 0 mm 6 mps 764 mmHg 62%
    10:00 -1°C° 0 mm 6 mps 764 mmHg 56%
    11:00 +1°C° 0 mm 6 mps 764 mmHg 50%
    12:00 +2°C° 0 mm 6 mps 763 mmHg 44%
    13:00 +2°C° 0 mm 6 mps 763 mmHg 44%
    14:00 +3°C° 0 mm 6 mps 763 mmHg 44%
    15:00 +3°C° 0 mm 6 mps 763 mmHg 44%
    16:00 +2°C° 0 mm 6 mps 763 mmHg 49%
    17:00 0°C° 0 mm 5 mps 763 mmHg 54%
    18:00 -1°C° 0 mm 5 mps 763 mmHg 59%
    19:00 -1°C° 0 mm 5 mps 763 mmHg 61%
    20:00 -2°C° 0 mm 5 mps 763 mmHg 62%
    21:00 -2°C° 0 mm 5 mps 763 mmHg 64%
    22:00 -2°C° 0 mm 5 mps 763 mmHg 65%
    23:00 -4°C° 0 mm 5 mps 763 mmHg 67%

    Tomorrow, 23 February, Friday

    Time Temperature Precipitation Wind Pressure Humidity
    00:00 -4°C° 0 mm 5 mps 763 mmHg 68%
    01:00 -4°C° 0 mm 5 mps 763 mmHg 68%
    02:00 -4°C° 0 mm 5 mps 763 mmHg 68%
    03:00 -5°C° 0 mm 5 mps 763 mmHg 68%
    04:00 -5°C° 0 mm 5 mps 763 mmHg 67%
    05:00 -5°C° 0 mm 5 mps 763 mmHg 66%
    06:00 -5°C° 0 mm 5 mps 763 mmHg 65%
    07:00 -4°C° 0 mm 6 mps 763 mmHg 59%
    08:00 -3°C° 0 mm 6 mps 763 mmHg 54%
    09:00 -2°C° 0 mm 7 mps 763 mmHg 48%
    10:00 -1°C° 0 mm 7 mps 762 mmHg 45%
    11:00 0°C° 0 mm 7 mps 762 mmHg 42%
    12:00 0°C° 0 mm 7 mps 762 mmHg 39%
    13:00 +2°C° 0 mm 7 mps 762 mmHg 39%
    14:00 +2°C° 0 mm 7 mps 761 mmHg 38%
    15:00 +2°C° 0 mm 7 mps 761 mmHg 38%
    16:00 +1°C° 0 mm 6 mps 761 mmHg 41%
    17:00 -2°C° 0 mm 6 mps 761 mmHg 43%
    18:00 -3°C° 0 mm 6 mps 761 mmHg 45%
    19:00 -3°C° 0 mm 6 mps 761 mmHg 45%
    20:00 -3°C° 0 mm 6 mps 761 mmHg 45%
    21:00 -4°C° 0 mm 6 mps 761 mmHg 44%
    22:00 -4°C° 0 mm 6 mps 761 mmHg 43%
    23:00 -4°C° 0 mm 6 mps 761 mmHg 43%

    Day after tomorrow, 24 February, Saturday

    Time Temperature Precipitation Wind Pressure Humidity
    00:00 -5°C° 0 mm 5 mps 761 mmHg 42%
    01:00 -5°C° 0 mm 6 mps 761 mmHg 42%
    02:00 -5°C° 0 mm 6 mps 761 mmHg 42%
    03:00 -5°C° 0 mm 6 mps 761 mmHg 42%
    04:00 -5°C° 0 mm 6 mps 761 mmHg 42%
    05:00 -5°C° 0 mm 6 mps 761 mmHg 42%
    06:00 -5°C° 0 mm 6 mps 761 mmHg 42%
    07:00 -4°C° 0 mm 7 mps 761 mmHg 40%
    08:00 -3°C° 0 mm 7 mps 761 mmHg 37%
    09:00 -4°C° 0 mm 8 mps 761 mmHg 35%
    10:00 -1°C° 0 mm 8 mps 761 mmHg 33%
    11:00 0°C° 0 mm 8 mps 761 mmHg 32%
    12:00 +1°C° 0 mm 8 mps 761 mmHg 31%
    13:00 +1°C° 0 mm 8 mps 761 mmHg 31%
    14:00 +2°C° 0 mm 8 mps 761 mmHg 30%
    15:00 +2°C° 0 mm 8 mps 761 mmHg 30%
    16:00 +2°C° 0 mm 7 mps 761 mmHg 34%
    17:00 0°C° 0 mm 7 mps 761 mmHg 39%
    18:00 -2°C° 0 mm 7 mps 762 mmHg 43%
    19:00 -2°C° 0 mm 7 mps 762 mmHg 45%
    20:00 -2°C° 0 mm 7 mps 763 mmHg 48%
    21:00 -3°C° 0 mm 7 mps 763 mmHg 51%
    22:00 -3°C° 0 mm 7 mps 763 mmHg 50%
    23:00 -4°C° 0 mm 7 mps 764 mmHg 49%

    25 February, Sunday

    Time Temperature Precipitation Wind Pressure Humidity
    00:00 -4°C° 0 mm 6 mps 764 mmHg 48%
    01:00 -5°C° 0 mm 6 mps 764 mmHg 47%
    02:00 -6°C° 0 mm 7 mps 764 mmHg 46%
    03:00 -6°C° 0 mm 7 mps 764 mmHg 45%
    04:00 -6°C° 0 mm 7 mps 764 mmHg 45%
    05:00 -7°C° 0 mm 7 mps 764 mmHg 45%
    06:00 -7°C° 0 mm 7 mps 764 mmHg 45%
    07:00 -6°C° 0 mm 7 mps 765 mmHg 42%
    08:00 -6°C° 0 mm 8 mps 765 mmHg 40%
    09:00 -5°C° 0 mm 8 mps 765 mmHg 37%
    10:00 -4°C° 0 mm 8 mps 765 mmHg 34%
    11:00 -2°C° 0 mm 8 mps 765 mmHg 32%
    12:00 -1°C° 0 mm 8 mps 765 mmHg 29%
    13:00 -1°C° 0 mm 8 mps 765 mmHg 28%
    14:00 -1°C° 0 mm 8 mps 765 mmHg 27%
    15:00 -1°C° 0 mm 8 mps 765 mmHg 25%
    16:00 -2°C° 0 mm 8 mps 765 mmHg 27%
    17:00 -3°C° 0 mm 7 mps 765 mmHg 28%
    18:00 -6°C° 0 mm 7 mps 766 mmHg 29%
    19:00 -6°C° 0 mm 7 mps 766 mmHg 32%
    20:00 -6°C° 0 mm 7 mps 766 mmHg 34%
    21:00 -7°C° 0 mm 7 mps 767 mmHg 36%
    22:00 -7°C° 0 mm 7 mps 767 mmHg 38%
    23:00 -6°C° 0 mm 6 mps 767 mmHg 41%

    26 February, Monday

    Time Temperature Precipitation Wind Pressure Humidity
    00:00 -6°C° 0 mm 6 mps 767 mmHg 43%
    01:00 -6°C° 0 mm 6 mps 767 mmHg 44%
    02:00 -8°C° 0 mm 6 mps 767 mmHg 45%
    03:00 -8°C° 0 mm 6 mps 767 mmHg 47%
    04:00 -8°C° 0 mm 6 mps 767 mmHg 47%
    05:00 -8°C° 0 mm 6 mps 767 mmHg 47%
    06:00 -8°C° 0 mm 7 mps 767 mmHg 48%
    07:00 -7°C° 0 mm 7 mps 767 mmHg 45%
    08:00 -7°C° 0 mm 8 mps 767 mmHg 42%
    09:00 -7°C° 0 mm 8 mps 766 mmHg 39%
    10:00 -6°C° 0 mm 8 mps 766 mmHg 37%
    11:00 -5°C° 0 mm 8 mps 766 mmHg 36%
    12:00 -5°C° 0 mm 8 mps 766 mmHg 34%
    13:00 -5°C° 0 mm 8 mps 765 mmHg 34%
    14:00 -5°C° 0 mm 8 mps 765 mmHg 34%
    15:00 -5°C° 0 mm 8 mps 764 mmHg 34%
    16:00 -4°C° 0 mm 7 mps 764 mmHg 37%
    17:00 -5°C° 0 mm 6 mps 764 mmHg 40%
    18:00 -6°C° 0 mm 5 mps 764 mmHg 43%
    19:00 -6°C° 0 mm 5 mps 764 mmHg 43%
    20:00 -6°C° 0 mm 5 mps 764 mmHg 44%
    21:00 -7°C° 0 mm 5 mps 764 mmHg 45%
    22:00 -7°C° 0 mm 5 mps 764 mmHg 46%
    23:00 -7°C° 0 mm 5 mps 764 mmHg 46%

    27 February, Tuesday

    Time Temperature Precipitation Wind Pressure Humidity
    00:00 -7°C° 0 mm 5 mps 763 mmHg 47%
    01:00 -7°C° 0 mm 4 mps 763 mmHg 47%
    02:00 -7°C° 0 mm 4 mps 763 mmHg 47%
    03:00 -8°C° 0 mm 4 mps 762 mmHg 47%
    04:00 -8°C° 0 mm 4 mps 762 mmHg 48%
    05:00 -8°C° 0 mm 4 mps 762 mmHg 49%
    06:00 -8°C° 0 mm 4 mps 762 mmHg 50%
    07:00 -8°C° 0 mm 4 mps 762 mmHg 46%
    08:00 -7°C° 0 mm 5 mps 762 mmHg 43%
    09:00 -7°C° 0 mm 5 mps 762 mmHg 40%
    10:00 -6°C° 0 mm 5 mps 762 mmHg 35%
    11:00 -5°C° 0 mm 5 mps 762 mmHg 31%
    12:00 -4°C° 0 mm 5 mps 762 mmHg 27%
    13:00 -4°C° 0 mm 5 mps 761 mmHg 26%
    14:00 -4°C° 0 mm 5 mps 761 mmHg 25%
    15:00 -4°C° 0 mm 5 mps 761 mmHg 24%
    16:00 -4°C° 0 mm 4 mps 761 mmHg 27%
    17:00 -5°C° 0 mm 3 mps 761 mmHg 30%
    18:00 -5°C° 0 mm 3 mps 762 mmHg 33%
    19:00 -6°C° 0 mm 3 mps 762 mmHg 34%
    20:00 -5°C° 0 mm 2 mps 762 mmHg 35%
    21:00 -5°C° 0 mm 2 mps 762 mmHg 36%
    22:00 -5°C° 0 mm 2 mps 762 mmHg 38%
    23:00 -5°C° 0 mm 2 mps 762 mmHg 40%
    Show more